| time (UTC) | temp C | wind direction | speed KPH | gust KPH | rain 1hr cm | rain 24hr cm | rain mn cm | humidity % | barometer mb |
| 20260505080046 | 14 | 0 | 0.0 | 3.2 | 0.00 | 0.00 | 0.00 | 75 | 1015.9 |
| 20260505074546 | 14 | 0 | 0.0 | 6.4 | 0.00 | 0.00 | 0.00 | 74 | 1015.9 |
| 20260505073045 | 15 | 138 | 0.0 | 4.8 | 0.00 | 0.00 | 0.00 | 73 | 1015.8 |
| 20260505071551 | 15 | 0 | 0.0 | 4.8 | 0.00 | 0.00 | 0.00 | 72 | 1015.9 |
| 20260505070042 | 15 | 117 | 0.0 | 3.2 | 0.00 | 0.00 | 0.00 | 71 | 1015.7 |
| 20260505064549 | 15 | 158 | 0.0 | 4.8 | 0.00 | 0.00 | 0.00 | 70 | 1015.7 |
| 20260505063046 | 16 | 0 | 0.0 | 6.4 | 0.00 | 0.00 | 0.00 | 68 | 1015.7 |
| 20260505061542 | 16 | 0 | 1.6 | 4.8 | 0.00 | 0.00 | 0.00 | 68 | 1015.6 |
| 20260505060042 | 16 | 0 | 1.6 | 6.4 | 0.00 | 0.00 | 0.00 | 68 | 1015.6 |
| 20260505054546 | 16 | 0 | 0.0 | 8.0 | 0.00 | 0.00 | 0.00 | 67 | 1015.7 |
| 20260505053040 | 16 | 0 | 0.0 | 6.4 | 0.00 | 0.00 | 0.00 | 67 | 1015.6 |
| 20260505051546 | 16 | 121 | 1.6 | 4.8 | 0.00 | 0.00 | 0.00 | 66 | 1015.7 |
| 20260505041535 | 17 | 127 | 0.0 | 8.0 | 0.00 | 0.00 | 0.00 | 58 | 1015.7 |
| 20260505040054 | 17 | 0 | 1.6 | 6.4 | 0.00 | 0.00 | 0.00 | 56 | 1015.7 |
| 20260505034544 | 18 | 0 | 0.0 | 8.0 | 0.00 | 0.00 | 0.00 | 54 | 1015.7 |
| 20260505033044 | 18 | 123 | 0.0 | 6.4 | 0.00 | 0.00 | 0.00 | 53 | 1015.6 |
| 20260505031552 | 18 | 0 | 0.0 | 6.4 | 0.00 | 0.00 | 0.00 | 53 | 1015.6 |
| 20260505030054 | 18 | 0 | 1.6 | 6.4 | 0.00 | 0.00 | 0.00 | 53 | 1015.6 |
| 20260505024550 | 18 | 0 | 0.0 | 6.4 | 0.00 | 0.00 | 0.00 | 53 | 1015.7 |
| 20260505023047 | 18 | 105 | 0.0 | 4.8 | 0.00 | 0.00 | 0.00 | 54 | 1015.5 |
| 20260505021550 | 17 | 0 | 0.0 | 3.2 | 0.00 | 0.00 | 0.00 | 55 | 1015.4 |
| 20260505020042 | 17 | 0 | 0.0 | 4.8 | 0.00 | 0.00 | 0.00 | 60 | 1015.3 |
| 20260505014559 | 16 | 0 | 0.0 | 3.2 | 0.00 | 0.00 | 0.00 | 63 | 1015.3 |
| 20260505013047 | 16 | 0 | 0.0 | 0.0 | 0.00 | 0.00 | 0.00 | 60 | 1015.1 |
| 20260505011550 | 17 | 0 | 0.0 | 0.0 | 0.00 | 0.00 | 0.00 | 59 | 1014.9 |
| 20260505010045 | 17 | 0 | 0.0 | 0.0 | 0.00 | 0.00 | 0.00 | 56 | 1014.7 |
| 20260505004551 | 18 | 0 | 0.0 | 0.0 | 0.00 | 0.00 | 0.00 | 53 | 1014.5 |
| 20260505003047 | 20 | 0 | 0.0 | 0.0 | 0.00 | 0.00 | 0.00 | 51 | 1014.2 |
| 20260505001547 | 21 | 0 | 0.0 | 0.0 | 0.00 | 0.00 | 0.00 | 48 | 1014.3 |
| 20260505000055 | 21 | 0 | 0.0 | 1.6 | 0.00 | 0.00 | 0.00 | 45 | 1014.1 |
| 20260504234544 | 22 | 0 | 0.0 | 3.2 | 0.00 | 0.00 | 0.00 | 44 | 1014.1 |
| 20260504233043 | 22 | 0 | 0.0 | 6.4 | 0.00 | 0.00 | 0.00 | 43 | 1013.9 |
| 20260504231541 | 23 | 0 | 0.0 | 6.4 | 0.00 | 0.00 | 0.00 | 41 | 1014.0 |
| 20260504230046 | 23 | 0 | 0.0 | 3.2 | 0.00 | 0.00 | 0.00 | 43 | 1013.9 |
| 20260504224547 | 23 | 0 | 0.0 | 6.4 | 0.00 | 0.00 | 0.00 | 39 | 1014.0 |
| 20260504223043 | 23 | 146 | 0.0 | 8.0 | 0.00 | 0.00 | 0.00 | 39 | 1013.9 |
| 20260504221543 | 24 | 44 | 1.6 | 8.0 | 0.00 | 0.00 | 0.00 | 39 | 1013.9 |
| 20260504220042 | 24 | 9 | 0.0 | 6.4 | 0.00 | 0.00 | 0.00 | 39 | 1014.0 |
| 20260504214554 | 24 | 179 | 1.6 | 8.0 | 0.00 | 0.00 | 0.00 | 41 | 1014.0 |
| 20260504213039 | 24 | 52 | 3.2 | 11.3 | 0.00 | 0.00 | 0.00 | 39 | 1014.0 |
| 20260504211546 | 24 | 11 | 3.2 | 8.0 | 0.00 | 0.00 | 0.00 | 38 | 1014.0 |
| 20260504210055 | 25 | 202 | 3.2 | 9.7 | 0.00 | 0.00 | 0.00 | 38 | 1014.1 |
| 20260504204606 | 25 | 187 | 1.6 | 9.7 | 0.00 | 0.00 | 0.00 | 37 | 1014.1 |
| 20260504203115 | 25 | 173 | 1.6 | 9.7 | 0.00 | 0.00 | 0.00 | 37 | 1014.2 |
| 20260504201549 | 25 | 176 | 1.6 | 11.3 | 0.00 | 0.00 | 0.00 | 38 | 1014.3 |
| 20260504200047 | 25 | 0 | 1.6 | 8.0 | 0.00 | 0.00 | 0.00 | 35 | 1014.4 |
| 20260504194544 | 25 | 40 | 1.6 | 12.9 | 0.00 | 0.00 | 0.00 | 36 | 1014.6 |
| 20260504193041 | 25 | 162 | 1.6 | 8.0 | 0.00 | 0.00 | 0.00 | 35 | 1014.8 |
| 20260504191552 | 25 | 180 | 1.6 | 11.3 | 0.00 | 0.00 | 0.00 | 36 | 1015.2 |
| 20260504190119 | 24 | 105 | 1.6 | 9.7 | 0.00 | 0.00 | 0.00 | 37 | 1015.4 |
| 20260504184548 | 24 | 144 | 3.2 | 11.3 | 0.00 | 0.00 | 0.00 | 38 | 1015.3 |
| 20260504183051 | 23 | 167 | 1.6 | 9.7 | 0.00 | 0.00 | 0.00 | 36 | 1015.4 |
| 20260504181542 | 23 | 0 | 1.6 | 12.9 | 0.00 | 0.00 | 0.00 | 34 | 1015.7 |
| 20260504180053 | 23 | 106 | 1.6 | 8.0 | 0.00 | 0.00 | 0.00 | 37 | 1015.8 |
| 20260504174549 | 23 | 67 | 3.2 | 8.0 | 0.00 | 0.00 | 0.00 | 37 | 1015.8 |
| 20260504173059 | 22 | 0 | 1.6 | 6.4 | 0.00 | 0.00 | 0.00 | 41 | 1016.1 |
| 20260504171548 | 23 | 113 | 1.6 | 6.4 | 0.00 | 0.00 | 0.00 | 41 | 1016.3 |
| 20260504081547 | 5 | 0 | 0.0 | 1.6 | 0.00 | 0.00 | 0.00 | 88 | 1017.5 |